Wind_Speed
1 1 1 1 2 1 2 2 2 3 2 2 2 2 2 2 2 3 4 4 5 5 6 7 7 7 7 8 8 8 9 9 9 9 9 9 9 9 9 8 9 9 9
1 1 2 2 2 2 3 3 3 3 3 3 3 3 3 4 4 5 5 4 4 5 5 6 6 8 8 8 8 8 9 9 10 9 9 10 9 10 10 10 9 9 9
1 2 2 3 3 3 4 4 4 4 4 4 4 4 5 5 6 6 6 5 5 6 5 6 6 6 7 7 8 8 8 8 9 9 9 10 10 10 11 11 10 11 11
1 2 3 4 4 4 5 5 5 5 5 5 5 6 6 6 7 7 6 7 7 7 7 8 8 8 8 8 9 8 8 8 9 9 10 10 10 10 10 11 11 12 13
2 3 4 4 5 5 5 5 6 6 7 7 7 8 8 8 7 8 8 8 9 9 9 9 8 9 9 9 9 9 9 10 10 10 10 11 12 12 12 12 13 13 13
4 5 5 6 6 7 7 7 7 8 8 8 9 9 9 9 9 9 9 9 9 9 10 10 10 10 10 10 10 11 11 11 11 11 11 12 13 14 14 14 15 14 14
5 5 6 7 7 8 8 8 9 9 9 9 9 10 10 10 10 10 10 10 10 10 11 11 11 11 12 12 13 12 12 12 12 13 13 14 14 15 15 15 15 15 15
7 7 7 8 8 8 9 9 10 10 11 11 11 11 12 11 12 11 11 11 11 12 12 12 12 12 12 13 13 13 13 13 14 15 14 14 14 14 15 16 16 16 16
8 8 9 9 9 10 10 11 11 11 12 12 12 12 13 13 13 12 12 12 12 12 13 13 13 13 14 14 14 14 14 15 15 15 16 16 16 15 16 16 17 17 17
10 10 10 10 11 11 11 11 12 12 13 13 13 13 13 13 13 13 14 14 14 14 14 14 14 14 15 15 15 15 15 15 15 16 16 16 17 17 17 17 17 17 18
11 11 11 11 12 12 12 13 13 14 14 14 14 14 14 14 14 15 15 16 16 16 16 16 16 16 16 16 16 16 16 16 16 16 16 16 17 18 18 18 18 18 18
12 12 12 12 13 13 13 14 15 15 14 14 15 15 15 15 14 15 15 17 17 17 17 17 18 17 17 17 17 17 17 17 17 17 16 17 17 17 18 18 18 18 18
13 13 14 14 14 14 15 15 16 16 16 16 16 15 16 16 16 16 16 17 18 18 18 18 19 18 18 18 18 18 18 17 17 17 17 17 17 18 18 19 19 18 18
15 15 15 16 16 16 16 16 17 17 17 17 17 17 17 17 17 17 18 18 18 19 19 19 20 20 20 20 19 19 19 18 18 18 18 18 18 17 18 18 18 18 19
16 16 16 17 17 17 17 16 17 17 17 18 18 19 19 19 19 19 19 19 19 19 19 19 20 21 21 20 20 20 19 19 18 18 18 18 17 17 18 18 18 18 19
17 17 17 17 17 17 17 17 17 17 18 18 19 19 20 20 21 21 20 20 20 20 20 19 20 20 19 19 20 19 19 20 19 18 17 17 18 18 18 18 19 19 19
18 18 18 18 17 18 18 18 18 19 19 19 19 20 20 21 21 21 21 21 20 20 19 19 20 20 20 20 20 20 19 18 18 18 18 18 18 18 18 18 18 19 19
18 18 18 18 18 18 19 19 19 19 19 20 20 20 21 21 21 21 21 21 20 21 21 20 20 21 21 21 21 20 19 18 18 18 18 18 18 18 18 18 18 18 17
19 19 20 19 19 20 20 20 21 20 20 20 20 20 21 21 20 21 21 21 21 22 22 21 21 22 23 23 23 22 21 20 20 19 19 19 19 19 19 19 18 18 18
20 20 20 20 20 21 21 21 21 21 21 21 21 21 21 21 21 21 22 22 22 23 23 23 23 22 23 23 23 23 22 22 22 21 20 20 20 19 19 19 19 19 18
21 21 21 21 22 22 23 23 23 22 22 22 22 22 21 22 22 22 22 23 23 23 23 24 24 23 23 23 22 22 22 22 22 22 21 20 20 20 19 19 19 19 19
22 22 22 22 22 22 23 23 23 23 23 22 23 23 23 23 23 23 24 24 24 24 24 23 23 23 23 23 23 22 22 22 21 21 21 21 20 21 21 21 20 20 20
22 22 23 22 22 23 23 23 23 23 23 23 23 24 24 24 24 24 24 25 25 24 24 24 24 23 24 24 24 24 23 23 22 21 22 22 22 21 21 21 21 21 21
22 22 23 23 23 24 24 24 24 24 25 24 24 24 24 24 24 24 24 25 25 25 24 24 24 23 24 24 24 24 24 23 23 23 23 23 22 22 22 22 21 21 22
22 22 23 23 24 24 24 25 25 25 25 25 25 25 25 25 25 24 25 25 25 24 24 23 23 24 24 24 24 24 24 23 23 23 22 22 22 22 22 21 21 22 23
23 23 23 24 24 24 25 25 25 25 25 26 26 26 26 26 26 26 25 25 24 23 22 22 23 23 23 23 24 24 24 23 23 22 22 23 23 23 23 22 22 23 23
Wind_Direction
286 272 273 271 255 266 292 298 290 291 292 298 315 314 296 291 286 273 267 268 264 268 268 264 267 265 271 277 274 273 267 261 262 260 260 259 263 268 268 265 264 262 262
255 247 249 249 255 264 276 283 285 283 282 285 293 307 315 299 281 270 272 270 265 271 274 271 269 267 270 276 278 279 272 268 264 261 262 261 262 266 268 265 261 258 261
266 258 242 250 257 262 271 278 281 280 279 279 279 291 301 299 288 279 273 268 267 268 270 272 273 274 276 281 284 284 276 271 266 261 262 264 265 270 269 267 265 262 262
294 268 262 260 264 266 268 273 274 271 275 277 281 286 290 292 288 283 279 273 269 269 270 272 275 278 281 283 283 280 280 280 273 269 266 270 273 272 271 268 269 267 265
292 287 282 273 272 270 270 271 273 273 274 278 282 285 286 284 282 282 281 277 271 270 270 274 277 281 280 282 280 276 280 283 278 270 266 269 273 274 274 271 268 268 268
295 285 281 277 277 276 276 274 276 276 278 282 284 285 284 283 280 282 284 280 275 272 271 271 274 278 279 279 281 279 280 282 278 273 267 269 272 272 272 272 269 267 267
303 292 283 287 284 282 281 281 280 278 279 283 285 285 284 280 281 283 284 282 279 276 275 276 276 278 280 278 278 280 281 280 277 274 271 270 272 272 270 270 270 268 267
299 298 290 287 284 281 278 277 277 277 279 278 281 283 285 285 281 280 278 280 278 275 276 276 277 279 281 283 279 279 279 279 276 275 273 274 274 274 272 270 270 269 267
291 290 290 287 284 281 278 276 275 275 281 281 281 282 281 284 286 281 279 279 277 273 273 273 275 278 282 283 283 280 279 278 275 273 274 275 275 275 277 272 270 269 266
288 284 285 284 281 280 280 280 278 276 278 281 281 282 279 278 280 281 280 277 277 275 272 273 275 278 281 282 282 282 279 277 276 275 274 274 274 274 276 275 272 269 266
286 286 286 284 283 281 280 280 279 276 279 281 281 281 278 277 279 278 277 277 276 275 274 275 275 278 280 281 280 282 284 279 277 276 275 273 272 273 274 273 272 270 267
288 286 287 285 283 282 282 281 281 277 278 279 280 282 281 280 282 279 277 277 276 274 274 275 274 276 278 279 280 281 282 281 278 277 276 274 274 275 273 272 270 269 267
290 287 287 286 284 282 282 281 281 280 278 278 280 283 284 282 281 279 278 277 276 277 277 275 273 274 276 277 279 281 281 279 278 278 277 276 274 276 274 273 271 270 268
291 289 287 285 285 283 283 282 281 280 279 278 280 283 284 283 282 280 279 277 277 277 277 275 272 272 273 274 278 280 281 279 277 278 278 278 278 277 277 275 274 273 270
291 290 286 285 285 284 283 283 282 279 278 279 280 282 284 284 283 282 281 278 276 276 276 275 273 273 272 273 275 275 277 278 278 278 277 278 280 279 278 276 274 274 272
289 288 285 285 284 283 282 283 283 282 279 279 280 281 282 284 284 284 283 280 278 276 276 274 274 273 273 274 274 274 275 276 276 277 278 278 280 281 279 278 276 273 271
288 287 286 285 284 283 282 283 282 281 282 282 281 281 281 282 284 283 281 280 279 275 273 271 273 273 273 273 273 273 276 275 275 276 276 276 278 281 280 279 279 274 270
288 287 286 284 283 282 282 281 281 280 280 281 281 280 280 281 282 282 281 278 276 274 273 269 270 272 272 273 273 273 275 275 275 275 275 276 277 278 277 278 276 275 271
288 286 284 284 282 280 280 281 281 280 280 280 280 280 280 280 281 281 280 278 275 274 273 270 269 271 272 272 272 273 276 276 274 274 275 276 278 278 277 275 274 273 269
288 285 283 282 282 279 278 279 280 279 278 278 278 279 278 277 279 280 280 279 276 276 274 272 270 270 270 270 270 271 274 274 273 273 274 276 277 277 277 276 275 273 268
288 286 284 282 282 281 279 279 279 279 277 276 277 278 277 277 277 278 279 278 277 276 274 272 271 272 270 270 272 272 272 273 273 272 273 275 274 274 273 273 272 271 268
289 286 284 283 283 283 281 280 280 280 279 278 278 279 278 279 280 279 278 278 278 278 276 273 272 273 273 273 273 272 273 273 273 273 272 272 272 274 273 272 271 270 271
289 287 286 285 284 283 283 282 281 280 279 278 279 280 280 282 282 280 279 278 279 279 278 275 274 274 274 275 274 273 272 270 270 271 272 272 272 273 273 271 270 270 270
291 289 287 286 285 284 285 284 282 281 279 278 279 280 281 281 282 280 281 279 279 279 278 276 275 275 274 273 274 273 272 269 268 270 271 270 269 271 272 270 268 267 268
291 289 287 285 284 284 284 284 283 282 281 279 277 278 280 280 282 282 281 280 280 279 277 276 275 275 276 275 274 272 270 270 271 271 270 268 267 267 270 269 268 268 269
291 289 288 286 285 284 284 284 283 283 282 280 279 279 279 280 281 282 282 280 279 277 276 277 278 278 277 277 275 273 270 269 271 269 268 267 266 265 266 267 267 268 268
Height
5879 5879 5879 5879 5879 5879 5879 5879 5879 5879 5879 5879 5878 5879 5879 5879 5879 5879 5879 5879 5879 5878 5878 5879 5878 5878 5879 5878 5878 5878 5878 5878 5878 5878 5878 5878 5878 5878 5878 5878 5878 5879 5879
5878 5878 5878 5878 5879 5879 5879 5879 5879 5878 5878 5878 5878 5878 5878 5877 5878 5878 5878 5878 5877 5877 5877 5877 5876 5877 5877 5877 5876 5876 5876 5876 5876 5876 5876 5876 5876 5876 5876 5876 5876 5877 5877
5878 5878 5878 5878 5878 5877 5877 5878 5878 5877 5877 5877 5877 5877 5877 5877 5876 5876 5876 5876 5876 5876 5875 5875 5875 5875 5875 5874 5874 5874 5873 5873 5873 5873 5873 5873 5874 5874 5874 5874 5874 5874 5875
5877 5877 5877 5877 5876 5876 5876 5876 5876 5876 5876 5876 5876 5876 5875 5875 5875 5875 5874 5874 5874 5874 5874 5874 5873 5873 5873 5872 5872 5872 5871 5871 5870 5870 5871 5871 5871 5871 5872 5872 5872 5872 5872
5876 5876 5875 5875 5875 5875 5875 5875 5875 5874 5875 5875 5874 5874 5874 5873 5873 5872 5872 5872 5872 5872 5872 5872 5871 5871 5871 5870 5870 5869 5869 5868 5868 5868 5868 5868 5868 5868 5868 5868 5868 5868 5869
5874 5874 5874 5874 5874 5873 5873 5873 5873 5872 5872 5872 5872 5872 5872 5871 5871 5870 5870 5870 5870 5870 5870 5869 5869 5869 5868 5868 5867 5867 5866 5865 5865 5865 5865 5865 5865 5865 5865 5864 5865 5865 5865
5873 5872 5872 5872 5872 5871 5871 5871 5871 5870 5870 5870 5870 5869 5869 5869 5868 5868 5868 5867 5867 5867 5867 5867 5866 5866 5865 5865 5864 5864 5863 5862 5862 5862 5861 5861 5861 5861 5861 5861 5861 5861 5861
5871 5870 5870 5870 5869 5869 5869 5868 5868 5868 5868 5867 5867 5866 5866 5866 5865 5865 5865 5865 5865 5864 5864 5864 5863 5863 5862 5862 5861 5860 5860 5859 5859 5858 5858 5857 5857 5857 5857 5856 5856 5856 5857
5869 5868 5868 5867 5867 5866 5866 5866 5865 5865 5865 5865 5864 5864 5863 5862 5862 5862 5861 5861 5861 5861 5861 5860 5860 5859 5859 5858 5857 5857 5856 5855 5855 5854 5854 5853 5853 5853 5852 5852 5852 5852 5852
5866 5866 5865 5864 5864 5863 5863 5862 5862 5862 5861 5861 5861 5860 5860 5859 5858 5858 5858 5858 5858 5857 5857 5857 5856 5855 5855 5854 5853 5853 5852 5851 5851 5850 5849 5849 5849 5848 5848 5847 5847 5847 5847
5863 5862 5862 5861 5861 5860 5860 5859 5858 5858 5858 5857 5857 5856 5856 5855 5854 5854 5854 5854 5854 5853 5853 5852 5852 5851 5850 5849 5849 5848 5848 5847 5846 5845 5845 5844 5844 5844 5843 5843 5842 5842 5842
5859 5859 5858 5858 5857 5856 5856 5855 5854 5854 5853 5853 5853 5852 5851 5851 5850 5850 5850 5849 5849 5849 5848 5848 5847 5847 5846 5845 5844 5844 5843 5842 5842 5841 5840 5839 5839 5839 5838 5838 5837 5837 5837
5856 5855 5854 5854 5853 5852 5851 5850 5850 5849 5849 5848 5848 5847 5846 5846 5846 5845 5845 5845 5844 5844 5843 5843 5843 5842 5841 5841 5840 5839 5838 5837 5837 5836 5835 5834 5834 5833 5833 5832 5832 5832 5832
5852 5851 5850 5849 5848 5847 5847 5845 5845 5845 5844 5844 5843 5842 5842 5841 5841 5840 5840 5840 5839 5839 5838 5838 5837 5837 5836 5836 5835 5834 5833 5832 5832 5831 5830 5829 5828 5828 5827 5827 5827 5827 5827
5847 5846 5845 5844 5843 5842 5842 5841 5840 5840 5839 5839 5838 5837 5836 5836 5835 5835 5834 5834 5834 5833 5833 5832 5832 5831 5831 5830 5830 5829 5828 5827 5826 5826 5825 5824 5823 5823 5822 5822 5822 5822 5822
5842 5841 5840 5839 5838 5837 5836 5835 5835 5834 5833 5833 5832 5831 5831 5830 5829 5829 5829 5828 5827 5827 5827 5827 5826 5826 5826 5825 5824 5824 5823 5822 5821 5821 5820 5819 5819 5818 5817 5817 5816 5816 5816
5836 5835 5834 5833 5832 5831 5830 5830 5829 5828 5828 5827 5826 5826 5825 5824 5823 5823 5822 5822 5821 5821 5821 5821 5820 5820 5820 5820 5819 5818 5818 5817 5816 5816 5815 5815 5814 5813 5813 5812 5811 5811 5811
5830 5829 5828 5827 5826 5825 5825 5824 5823 5822 5822 5821 5820 5819 5819 5818 5817 5817 5816 5815 5815 5815 5815 5815 5815 5814 5814 5814 5813 5813 5813 5812 5811 5811 5810 5810 5809 5809 5808 5807 5807 5806 5806
5825 5824 5823 5821 5820 5819 5818 5817 5817 5816 5815 5815 5814 5813 5812 5812 5811 5810 5809 5809 5809 5808 5808 5808 5809 5809 5808 5808 5807 5807 5807 5806 5806 5805 5805 5805 5804 5803 5803 5802 5802 5801 5801
5819 5817 5816 5815 5814 5813 5812 5811 5810 5809 5808 5808 5807 5806 5806 5805 5805 5804 5803 5802 5802 5801 5801 5801 5802 5802 5801 5801 5800 5801 5801 5800 5800 5800 5799 5799 5798 5798 5797 5797 5796 5796 5796
5813 5811 5810 5809 5807 5806 5805 5804 5803 5802 5802 5801 5800 5800 5799 5798 5798 5797 5796 5795 5795 5794 5794 5794 5794 5794 5794 5794 5794 5794 5794 5794 5794 5794 5793 5793 5792 5792 5791 5791 5791 5791 5791
5807 5805 5803 5802 5801 5800 5799 5798 5797 5796 5795 5794 5794 5793 5791 5791 5790 5789 5788 5788 5787 5786 5786 5786 5787 5787 5787 5788 5787 5787 5787 5788 5788 5788 5787 5787 5786 5786 5785 5785 5785 5785 5785
5800 5798 5797 5795 5794 5793 5792 5791 5790 5789 5788 5787 5787 5786 5785 5784 5783 5782 5781 5780 5779 5779 5779 5779 5780 5780 5780 5780 5780 5780 5780 5781 5781 5781 5780 5780 5780 5779 5779 5778 5778 5779 5779
5793 5792 5790 5789 5787 5786 5785 5784 5783 5782 5781 5780 5780 5779 5778 5777 5776 5774 5773 5772 5772 5772 5772 5772 5772 5772 5772 5772 5772 5773 5773 5773 5773 5773 5773 5772 5772 5772 5772 5771 5772 5772 5772
5787 5785 5783 5782 5781 5779 5778 5777 5775 5774 5774 5773 5772 5772 5771 5770 5769 5767 5766 5765 5765 5764 5764 5764 5764 5764 5764 5764 5765 5765 5765 5765 5765 5765 5765 5765 5765 5765 5765 5765 5765 5765 5765
5781 5779 5777 5775 5774 5772 5771 5769 5768 5767 5766 5766 5765 5764 5763 5763 5761 5760 5759 5758 5757 5757 5757 5757 5757 5757 5757 5757 5757 5757 5757 5758 5758 5758 5758 5758 5758 5758 5758 5758 5758 5758 5758